Volver al catálogo

COSMOS 1275 DEB

ActivoPO
NORAD 14504·DEBRIS·🇷🇺 Russia

Lanzado Jun 4, 1981 desde Plesetsk Cosmodrome

Loading…

Próximos Pases (próximas 24 horas)

TLE

ActualizadoSource: Space-Track

Época: Sep 14, 2026, 08:50 UTC

1 14504U 81053JJ  26257.36813839  .00000814  00000-0  46801-3 0  9999
2 14504  83.1858 266.9861 0021151 147.1589 278.2260 14.08023945295034

Sigue COSMOS 1275 DEB en tiempo real con AllMySat

Download on the App Store